Location: Coopersdale
(40.3556°N, 78.9372°W)
Time: 05:50:50
(UTC+00:00)

Transit 2A Rocket - Visible Passes

Search period start: 28 January 2021 00:00
Search period end: 07 February 2021 00:00
Orbit: 592 x 910 km, 66.7° (Epoch: 27 January)

Date Brightness Start Highest point End Pass type
(mag) Time Alt. Az. Time Alt. Az. Time Alt. Az.
28 Jan 6.8 00:14:35 10° N 00:15:06 12° N 00:15:06 12° N visible
28 Jan 6.7 23:33:48 10° NNE 23:34:05 10° NE 23:34:05 10° NE visible
29 Jan 7.1 01:13:27 10° NNW 01:14:02 13° NNW 01:14:02 13° NNW visible
30 Jan 6.0 00:31:01 10° NNW 00:33:09 25° N 00:33:09 25° N visible
30 Jan 5.6 23:48:50 10° N 23:52:23 24° NE 23:52:26 24° NE visible
31 Jan 7.0 01:31:04 10° NW 01:32:24 18° WNW 01:32:24 18° WNW visible
31 Jan 6.3 23:07:06 10° N 23:09:28 14° NE 23:11:50 10° ENE visible
01 Feb 4.9 00:48:11 10° NW 00:51:56 58° WNW 00:51:56 58° WNW visible
02 Feb 4.4 00:05:36 10° NNW 00:09:54 63° ENE 00:11:48 31° SE visible
02 Feb 7.6 01:50:39 10° W 01:51:49 11° WSW 01:51:49 11° WSW visible
02 Feb 5.2 23:23:15 10° NNW 23:27:13 33° NE 23:31:08 10° ESE visible
03 Feb 6.8 01:06:12 10° WNW 01:09:31 22° WSW 01:12:17 12° SSW visible
04 Feb 5.7 00:23:02 10° NW 00:27:06 42° WSW 00:31:10 10° S visible
04 Feb 4.5 23:40:16 10° NNW 23:44:36 84° WSW 23:48:55 10° SSE visible
06 Feb 7.6 00:41:45 10° WNW 00:44:02 14° WSW 00:46:19 10° SW visible
